Time,TemperatureF,DewpointF,PressureIn,WindDirection,WindDirectionDegrees,WindSpeedMPH,WindSpeedGustMPH,Humidity,HourlyPrecipIn,Conditions,Clouds,dailyrainin,SoftwareType,DateUTC
2013-08-02 00:02:00,78.0,74.0,29.95,NE,38,1.0,3.0,87,0.00,,,0.00,,2013-08-02 05:02:00,
2013-08-02 00:12:00,78.0,74.0,29.95,NE,38,1.0,3.0,87,0.00,,,0.00,,2013-08-02 05:12:00,
2013-08-02 00:22:00,78.0,74.0,29.94,NE,46,2.0,4.0,87,0.00,,,0.00,,2013-08-02 05:22:00,
2013-08-02 00:32:00,78.0,73.0,29.94,NE,45,1.0,4.0,86,0.00,,,0.00,,2013-08-02 05:32:00,
2013-08-02 00:43:00,78.0,73.0,29.94,NE,45,1.0,4.0,86,0.00,,,0.00,,2013-08-02 05:43:00,
2013-08-02 00:53:00,77.0,73.0,29.93,ENE,63,1.0,4.0,87,0.00,,,0.00,,2013-08-02 05:53:00,
2013-08-02 01:02:00,77.0,73.0,29.93,NE,46,2.0,5.0,88,0.00,,,0.00,,2013-08-02 06:02:00,
2013-08-02 01:33:00,76.0,72.0,29.93,NE,53,1.0,4.0,88,0.00,,,0.00,,2013-08-02 06:33:00,
2013-08-02 01:43:00,76.0,72.0,29.93,NE,53,1.0,4.0,88,0.00,,,0.00,,2013-08-02 06:43:00,
2013-08-02 01:52:00,76.0,73.0,29.93,NE,46,1.0,3.0,89,0.00,,,0.00,,2013-08-02 06:52:00,
2013-08-02 02:02:00,75.0,72.0,29.93,NE,46,1.0,4.0,90,0.00,,,0.00,,2013-08-02 07:02:00,
2013-08-02 02:12:00,75.0,72.0,29.93,NE,46,1.0,4.0,90,0.00,,,0.00,,2013-08-02 07:12:00,
2013-08-02 02:22:00,75.0,72.0,29.93,NE,46,1.0,3.0,90,0.00,,,0.00,,2013-08-02 07:22:00,
2013-08-02 02:33:00,75.0,72.0,29.93,NE,38,1.0,3.0,91,0.00,,,0.00,,2013-08-02 07:33:00,
2013-08-02 02:44:00,75.0,72.0,29.93,NE,38,1.0,3.0,91,0.00,,,0.00,,2013-08-02 07:44:00,
2013-08-02 02:53:00,75.0,72.0,29.93,NE,49,2.0,5.0,90,0.00,,,0.00,,2013-08-02 07:53:00,
2013-08-02 03:02:00,75.0,72.0,29.94,NE,34,1.0,3.0,91,0.00,,,0.00,,2013-08-02 08:02:00,
2013-08-02 03:12:00,75.0,72.0,29.94,NE,34,1.0,3.0,91,0.00,,,0.00,,2013-08-02 08:12:00,
2013-08-02 03:22:00,74.0,71.0,29.93,NE,34,0.0,2.0,91,0.00,,,0.00,,2013-08-02 08:22:00,
2013-08-02 03:43:00,74.0,71.0,29.93,NE,34,1.0,3.0,91,0.00,,,0.00,,2013-08-02 08:43:00,
2013-08-02 03:54:00,74.0,72.0,29.93,NE,34,0.0,2.0,92,0.00,,,0.00,,2013-08-02 08:54:00,
2013-08-02 04:53:00,74.0,72.0,29.93,NNE,13,0.0,4.0,93,0.00,,,0.00,,2013-08-02 09:53:00,
2013-08-02 05:12:00,74.0,72.0,29.94,NNE,13,0.0,3.0,93,0.00,,,0.00,,2013-08-02 10:12:00,
2013-08-02 05:23:00,73.0,71.0,29.93,NNE,13,0.0,1.0,93,0.00,,,0.00,,2013-08-02 10:23:00,
2013-08-02 05:33:00,73.0,71.0,29.93,NNE,13,0.0,2.0,93,0.00,,,0.00,,2013-08-02 10:33:00,
2013-08-02 05:43:00,73.0,71.0,29.93,NNE,13,0.0,2.0,93,0.00,,,0.00,,2013-08-02 10:43:00,
2013-08-02 05:52:00,73.0,71.0,29.94,NNE,13,0.0,1.0,93,0.00,,,0.00,,2013-08-02 10:52:00,
2013-08-02 06:02:00,73.0,71.0,29.94,NNE,13,0.0,2.0,94,0.00,,,0.00,,2013-08-02 11:02:00,
2013-08-02 06:12:00,73.0,71.0,29.94,NNE,13,0.0,2.0,94,0.00,,,0.00,,2013-08-02 11:12:00,
2013-08-02 06:22:00,73.0,71.0,29.95,NE,38,0.0,2.0,93,0.00,,,0.00,,2013-08-02 11:22:00,
2013-08-02 06:43:00,73.0,71.0,29.96,NE,37,0.0,3.0,93,0.00,,,0.00,,2013-08-02 11:43:00,
2013-08-02 06:52:00,73.0,71.0,29.95,NE,37,0.0,1.0,93,0.00,,,0.00,,2013-08-02 11:52:00,
2013-08-02 07:02:00,73.0,71.0,29.95,NE,37,0.0,2.0,93,0.00,,,0.00,,2013-08-02 12:02:00,
2013-08-02 07:12:00,73.0,71.0,29.95,NE,37,0.0,2.0,93,0.00,,,0.00,,2013-08-02 12:12:00,
2013-08-02 07:22:00,74.0,72.0,29.95,NE,37,0.0,0.0,93,0.00,,,0.00,,2013-08-02 12:22:00,
2013-08-02 07:33:00,74.0,72.0,29.95,NE,37,0.0,1.0,92,0.00,,,0.00,,2013-08-02 12:33:00,
2013-08-02 07:43:00,74.0,72.0,29.95,NE,37,0.0,1.0,92,0.00,,,0.00,,2013-08-02 12:43:00,
2013-08-02 07:52:00,74.0,72.0,29.95,NE,37,0.0,1.0,92,0.00,,,0.00,,2013-08-02 12:52:00,
2013-08-02 08:02:00,74.0,72.0,29.96,ENE,62,1.0,3.0,92,0.00,,,0.00,,2013-08-02 13:02:00,
2013-08-02 08:12:00,74.0,72.0,29.96,ENE,62,1.0,3.0,92,0.00,,,0.00,,2013-08-02 13:12:00,
2013-08-02 08:22:00,74.0,72.0,29.96,ENE,62,1.0,2.0,92,0.00,,,0.00,,2013-08-02 13:22:00,
2013-08-02 08:33:00,75.0,73.0,29.96,ENE,65,1.0,2.0,92,0.00,,,0.00,,2013-08-02 13:33:00,
2013-08-02 08:43:00,75.0,73.0,29.96,ENE,65,1.0,2.0,92,0.00,,,0.00,,2013-08-02 13:43:00,
2013-08-02 09:02:00,78.0,75.0,29.96,ENE,63,0.0,3.0,90,0.00,,,0.00,,2013-08-02 14:02:00,
2013-08-02 09:12:00,78.0,75.0,29.96,ENE,63,0.0,3.0,90,0.00,,,0.00,,2013-08-02 14:12:00,
2013-08-02 09:22:00,79.0,74.0,29.96,East,96,1.0,5.0,86,0.00,,,0.00,,2013-08-02 14:22:00,
2013-08-02 09:32:00,80.0,76.0,29.96,East,96,1.0,5.0,87,0.00,,,0.00,,2013-08-02 14:32:00,
2013-08-02 09:43:00,80.0,76.0,29.96,East,96,1.0,5.0,87,0.00,,,0.00,,2013-08-02 14:43:00,
2013-08-02 09:53:00,81.0,76.0,29.96,SE,132,1.0,4.0,85,0.00,,,0.00,,2013-08-02 14:53:00,
2013-08-02 10:03:00,82.0,77.0,29.96,ESE,114,1.0,5.0,86,0.00,,,0.00,,2013-08-02 15:03:00,
2013-08-02 10:12:00,82.0,77.0,29.96,ESE,114,1.0,5.0,86,0.00,,,0.00,,2013-08-02 15:12:00,
2013-08-02 10:22:00,83.0,77.0,29.96,South,181,1.0,7.0,81,0.00,,,0.00,,2013-08-02 15:22:00,
2013-08-02 10:32:00,84.0,76.0,29.96,SSW,208,1.0,5.0,78,0.00,,,0.00,,2013-08-02 15:32:00,
2013-08-02 10:52:00,85.0,77.0,29.96,SSE,156,0.0,3.0,77,0.00,,,0.00,,2013-08-02 15:52:00,
2013-08-02 11:02:00,87.0,78.0,29.96,ESE,110,0.0,2.0,74,0.00,,,0.00,,2013-08-02 16:02:00,
2013-08-02 11:12:00,87.0,78.0,29.96,ESE,110,0.0,2.0,74,0.00,,,0.00,,2013-08-02 16:12:00,
2013-08-02 11:22:00,88.0,77.0,29.96,SSE,163,0.0,5.0,71,0.00,,,0.00,,2013-08-02 16:22:00,
2013-08-02 11:32:00,89.0,75.0,29.96,West,277,2.0,7.0,64,0.00,,,0.00,,2013-08-02 16:32:00,
2013-08-02 11:43:00,89.0,75.0,29.96,West,277,2.0,7.0,64,0.00,,,0.00,,2013-08-02 16:43:00,
2013-08-02 12:02:00,89.0,75.0,29.97,WNW,288,3.0,7.0,63,0.00,,,0.00,,2013-08-02 17:02:00,
2013-08-02 12:12:00,89.0,75.0,29.97,WNW,288,3.0,7.0,63,0.00,,,0.00,,2013-08-02 17:12:00,
2013-08-02 12:22:00,90.0,75.0,29.97,NNW,333,1.0,5.0,62,0.00,,,0.00,,2013-08-02 17:22:00,
2013-08-02 12:35:00,91.0,77.0,29.98,NW,317,2.0,8.0,64,0.00,,,0.00,,2013-08-02 17:35:00,
2013-08-02 12:43:00,91.0,77.0,29.98,NW,317,2.0,8.0,64,0.00,,,0.00,,2013-08-02 17:43:00,
2013-08-02 12:52:00,91.0,75.0,29.97,WNW,292,3.0,7.0,60,0.00,,,0.00,,2013-08-02 17:52:00,
2013-08-02 13:02:00,92.0,73.0,29.97,North,355,4.0,7.0,54,0.00,,,0.00,,2013-08-02 18:02:00,
2013-08-02 13:12:00,92.0,73.0,29.97,North,355,4.0,7.0,54,0.00,,,0.00,,2013-08-02 18:12:00,
2013-08-02 13:22:00,91.0,73.0,29.97,NNW,332,1.0,6.0,56,0.00,,,0.00,,2013-08-02 18:22:00,
2013-08-02 13:32:00,93.0,74.0,29.96,NNW,346,3.0,6.0,54,0.00,,,0.00,,2013-08-02 18:32:00,
2013-08-02 13:43:00,93.0,74.0,29.96,NNW,346,3.0,6.0,54,0.00,,,0.00,,2013-08-02 18:43:00,
2013-08-02 13:52:00,92.0,73.0,29.95,ENE,58,1.0,6.0,55,0.00,,,0.00,,2013-08-02 18:52:00,
2013-08-02 14:02:00,93.0,73.0,29.95,North,355,4.0,9.0,53,0.00,,,0.00,,2013-08-02 19:02:00,
2013-08-02 14:12:00,93.0,73.0,29.95,North,355,4.0,9.0,53,0.00,,,0.00,,2013-08-02 19:12:00,
2013-08-02 14:22:00,93.0,74.0,29.95,NE,52,5.0,7.0,54,0.00,,,0.00,,2013-08-02 19:22:00,
2013-08-02 14:43:00,92.0,73.0,29.94,ESE,112,1.0,7.0,54,0.00,,,0.00,,2013-08-02 19:43:00,
2013-08-02 14:52:00,93.0,72.0,29.94,North,5,0.0,6.0,51,0.00,,,0.00,,2013-08-02 19:52:00,
2013-08-02 15:02:00,93.0,72.0,29.94,North,5,0.0,6.0,51,0.00,,,0.00,,2013-08-02 20:02:00,
2013-08-02 15:12:00,93.0,72.0,29.94,ENE,77,3.0,7.0,50,0.00,,,0.00,,2013-08-02 20:12:00,
2013-08-02 15:23:00,94.0,72.0,29.93,NNW,348,2.0,4.0,49,0.00,,,0.00,,2013-08-02 20:23:00,
2013-08-02 15:32:00,94.0,72.0,29.93,NNE,30,3.0,6.0,49,0.00,,,0.00,,2013-08-02 20:32:00,
2013-08-02 15:43:00,94.0,72.0,29.93,NNE,30,3.0,6.0,49,0.00,,,0.00,,2013-08-02 20:43:00,
2013-08-02 15:52:00,95.0,73.0,29.93,NW,323,3.0,6.0,50,0.00,,,0.00,,2013-08-02 20:52:00,
2013-08-02 16:03:00,95.0,73.0,29.93,NW,323,3.0,6.0,50,0.00,,,0.00,,2013-08-02 21:03:00,
2013-08-02 16:12:00,95.0,73.0,29.93,NW,323,3.0,6.0,50,0.00,,,0.00,,2013-08-02 21:12:00,
2013-08-02 16:22:00,94.0,72.0,29.92,SW,225,1.0,5.0,49,0.00,,,0.00,,2013-08-02 21:22:00,
2013-08-02 16:32:00,94.0,72.0,29.92,NNE,13,1.0,4.0,49,0.00,,,0.00,,2013-08-02 21:32:00,
2013-08-02 16:43:00,94.0,72.0,29.92,NNE,13,1.0,4.0,49,0.00,,,0.00,,2013-08-02 21:43:00,
2013-08-02 16:53:00,93.0,73.0,29.92,ENE,74,2.0,7.0,53,0.00,,,0.00,,2013-08-02 21:53:00,
2013-08-02 17:02:00,93.0,73.0,29.92,ENE,64,3.0,5.0,52,0.00,,,0.00,,2013-08-02 22:02:00,
2013-08-02 17:12:00,93.0,73.0,29.92,ENE,64,3.0,5.0,52,0.00,,,0.00,,2013-08-02 22:12:00,
2013-08-02 17:22:00,93.0,73.0,29.92,ENE,64,3.0,5.0,52,0.00,,,0.00,,2013-08-02 22:22:00,
2013-08-02 17:43:00,92.0,73.0,29.92,East,79,0.0,4.0,55,0.00,,,0.00,,2013-08-02 22:43:00,
2013-08-02 17:52:00,93.0,73.0,29.91,NE,49,2.0,5.0,53,0.00,,,0.00,,2013-08-02 22:52:00,
2013-08-02 18:02:00,93.0,73.0,29.91,ENE,64,2.0,4.0,53,0.00,,,0.00,,2013-08-02 23:02:00,
2013-08-02 18:12:00,93.0,73.0,29.91,ENE,64,2.0,4.0,53,0.00,,,0.00,,2013-08-02 23:12:00,
2013-08-02 18:22:00,92.0,75.0,29.91,ENE,75,4.0,6.0,58,0.00,,,0.00,,2013-08-02 23:22:00,
2013-08-02 18:32:00,92.0,75.0,29.91,ENE,75,4.0,6.0,58,0.00,,,0.00,,2013-08-02 23:32:00,
2013-08-02 18:43:00,91.0,75.0,29.91,ENE,70,2.0,6.0,60,0.00,,,0.00,,2013-08-02 23:43:00,
2013-08-02 18:53:00,90.0,75.0,29.91,ENE,63,2.0,5.0,62,0.00,,,0.00,,2013-08-02 23:53:00,
2013-08-02 19:02:00,90.0,75.0,29.91,East,83,1.0,5.0,62,0.00,,,0.00,,2013-08-03 00:02:00,
2013-08-02 19:12:00,90.0,75.0,29.91,East,83,1.0,5.0,62,0.00,,,0.00,,2013-08-03 00:12:00,
2013-08-02 19:22:00,89.0,74.0,29.91,ENE,75,1.0,4.0,62,0.00,,,0.00,,2013-08-03 00:22:00,
2013-08-02 19:33:00,88.0,75.0,29.92,ENE,75,0.0,2.0,65,0.00,,,0.00,,2013-08-03 00:33:00,
2013-08-02 19:43:00,88.0,75.0,29.92,ENE,75,0.0,2.0,65,0.00,,,0.00,,2013-08-03 00:43:00,
2013-08-02 19:52:00,86.0,76.0,29.92,ENE,75,0.0,2.0,72,0.00,,,0.00,,2013-08-03 00:52:00,
2013-08-02 20:02:00,85.0,75.0,29.92,ENE,75,0.0,2.0,71,0.00,,,0.00,,2013-08-03 01:02:00,
2013-08-02 20:12:00,85.0,75.0,29.92,ENE,75,0.0,2.0,71,0.00,,,0.00,,2013-08-03 01:12:00,
2013-08-02 20:22:00,84.0,74.0,29.92,ENE,75,0.0,0.0,73,0.00,,,0.00,,2013-08-03 01:22:00,
2013-08-02 20:32:00,83.0,75.0,29.92,ENE,75,0.0,0.0,76,0.00,,,0.00,,2013-08-03 01:32:00,
2013-08-02 20:42:00,83.0,75.0,29.92,ENE,75,0.0,0.0,76,0.00,,,0.00,,2013-08-03 01:42:00,
2013-08-02 20:53:00,83.0,75.0,29.93,ENE,75,0.0,2.0,76,0.00,,,0.00,,2013-08-03 01:53:00,
2013-08-02 21:02:00,84.0,74.0,29.93,ENE,75,0.0,2.0,72,0.00,,,0.00,,2013-08-03 02:02:00,
2013-08-02 21:12:00,84.0,74.0,29.93,ENE,75,0.0,2.0,72,0.00,,,0.00,,2013-08-03 02:12:00,
2013-08-02 21:22:00,83.0,74.0,29.93,ENE,75,1.0,2.0,75,0.00,,,0.00,,2013-08-03 02:22:00,
2013-08-02 21:32:00,83.0,75.0,29.94,ESE,110,0.0,2.0,76,0.00,,,0.00,,2013-08-03 02:32:00,
2013-08-02 21:43:00,83.0,75.0,29.94,ESE,110,0.0,2.0,76,0.00,,,0.00,,2013-08-03 02:43:00,
2013-08-02 21:52:00,82.0,75.0,29.95,ESE,110,0.0,1.0,80,0.00,,,0.00,,2013-08-03 02:52:00,
2013-08-02 22:02:00,82.0,75.0,29.95,ESE,113,1.0,3.0,79,0.00,,,0.00,,2013-08-03 03:02:00,
2013-08-02 22:12:00,82.0,75.0,29.95,ESE,113,1.0,3.0,79,0.00,,,0.00,,2013-08-03 03:12:00,
2013-08-02 22:22:00,82.0,75.0,29.95,ESE,113,1.0,2.0,80,0.00,,,0.00,,2013-08-03 03:22:00,
2013-08-02 22:32:00,82.0,76.0,29.96,ESE,113,1.0,3.0,81,0.00,,,0.00,,2013-08-03 03:32:00,
2013-08-02 22:43:00,82.0,76.0,29.96,ESE,113,1.0,3.0,81,0.00,,,0.00,,2013-08-03 03:43:00,
2013-08-02 22:53:00,81.0,76.0,29.95,SE,140,1.0,4.0,84,0.00,,,0.00,,2013-08-03 03:53:00,
2013-08-02 23:02:00,80.0,75.0,29.95,SE,140,2.0,4.0,86,0.00,,,0.00,,2013-08-03 04:02:00,
2013-08-02 23:12:00,80.0,75.0,29.95,SE,140,2.0,4.0,86,0.00,,,0.00,,2013-08-03 04:12:00,
2013-08-02 23:22:00,80.0,75.0,29.95,SSE,148,1.0,4.0,86,0.00,,,0.00,,2013-08-03 04:22:00,
2013-08-02 23:32:00,80.0,76.0,29.95,SSE,148,2.0,4.0,87,0.00,,,0.00,,2013-08-03 04:32:00,
2013-08-02 23:43:00,80.0,76.0,29.95,SSE,148,2.0,4.0,87,0.00,,,0.00,,2013-08-03 04:43:00,
2013-08-02 23:53:00,80.0,75.0,29.95,SSE,148,1.0,3.0,85,0.00,,,0.00,,2013-08-03 04:53:00,